TimeMST,TemperatureF,Dew PointF,Humidity,Sea Level PressureIn,VisibilityMPH,Wind Direction,Wind SpeedMPH,Gust SpeedMPH,PrecipitationIn,Events,Conditions,WindDirDegrees,DateUTC
12:56 AM,33.1,16.0,50,30.14,10.0,Calm,Calm,-,N/A,,Clear,0,2014-01-02 07:56:00
1:56 AM,32.0,16.0,52,30.14,10.0,East,4.6,-,N/A,,Clear,100,2014-01-02 08:56:00
2:56 AM,30.0,16.0,56,30.15,10.0,Calm,Calm,-,N/A,,Clear,0,2014-01-02 09:56:00
3:56 AM,30.9,16.0,54,30.16,10.0,NNW,8.1,-,N/A,,Clear,340,2014-01-02 10:56:00
4:56 AM,33.1,18.0,54,30.16,10.0,NNW,10.4,-,N/A,,Clear,340,2014-01-02 11:56:00
5:56 AM,27.0,16.0,63,30.21,10.0,Calm,Calm,-,N/A,,Clear,0,2014-01-02 12:56:00
6:56 AM,24.1,15.1,69,30.24,10.0,NW,4.6,-,N/A,,Clear,320,2014-01-02 13:56:00
7:56 AM,26.1,16.0,66,30.27,10.0,Variable,3.5,-,N/A,,Clear,0,2014-01-02 14:56:00
8:56 AM,39.0,19.9,46,30.25,10.0,NW,4.6,-,N/A,,Clear,310,2014-01-02 15:56:00
9:56 AM,52.0,21.0,30,30.24,10.0,WNW,3.5,-,N/A,,Clear,290,2014-01-02 16:56:00
10:56 AM,57.9,21.0,24,30.20,10.0,South,5.8,-,N/A,,Clear,190,2014-01-02 17:56:00
11:56 AM,63.0,19.0,18,30.16,10.0,ESE,10.4,-,N/A,,Clear,110,2014-01-02 18:56:00
12:56 PM,64.9,19.9,18,30.13,10.0,ESE,9.2,-,N/A,,Clear,110,2014-01-02 19:56:00
1:56 PM,64.9,19.0,17,30.10,10.0,SE,6.9,-,N/A,,Clear,130,2014-01-02 20:56:00
2:56 PM,66.0,19.0,17,30.09,10.0,ENE,6.9,-,N/A,,Clear,70,2014-01-02 21:56:00
3:56 PM,66.0,19.0,17,30.08,10.0,East,10.4,-,N/A,,Clear,100,2014-01-02 22:56:00
4:56 PM,62.1,19.9,20,30.09,10.0,East,8.1,-,N/A,,Clear,90,2014-01-02 23:56:00
5:56 PM,55.0,19.9,25,30.12,10.0,ENE,9.2,-,N/A,,Clear,70,2014-01-03 00:56:00
6:56 PM,52.0,21.0,30,30.14,10.0,ENE,8.1,-,N/A,,Clear,70,2014-01-03 01:56:00
7:56 PM,46.9,19.9,34,30.16,10.0,WNW,4.6,-,N/A,,Clear,290,2014-01-03 02:56:00
8:56 PM,41.0,19.0,41,30.15,10.0,NW,6.9,-,N/A,,Clear,310,2014-01-03 03:56:00
9:56 PM,39.0,19.9,46,30.12,10.0,North,9.2,-,N/A,,Clear,10,2014-01-03 04:56:00
10:56 PM,39.0,21.0,49,30.10,10.0,North,10.4,-,N/A,,Clear,10,2014-01-03 05:56:00
11:56 PM,39.0,21.0,49,30.09,10.0,North,11.5,-,N/A,,Clear,10,2014-01-03 06:56:00